Location: Unspecified
(0.0000°N, 0.0000°E)
Time: 10:49:51
(UTC+00:00)

Transit 2A - Visible Passes

Search period start: 10 February 2016 00:00
Search period end: 20 February 2016 00:00
Orbit: 599 x 961 km, 66.7° (Epoch: 09 February)

Date Brightness Start Highest point End Pass type
(mag) Time Alt. Az. Time Alt. Az. Time Alt. Az.
10 Feb 6.4 18:55:33 10° NNW 19:01:33 82° ENE 19:07:54 10° SSE visible
11 Feb 9.4 20:07:43 10° W 20:10:50 14° WSW 20:14:00 10° SW visible
12 Feb 8.9 19:32:11 10° WNW 19:36:52 23° WSW 19:41:43 10° SSW visible
13 Feb 8.2 18:57:26 10° NW 19:02:56 36° WSW 19:08:41 10° S visible
15 Feb 8.1 05:17:37 10° SSE 05:21:24 25° ESE 05:25:01 10° NE visible
16 Feb 8.9 04:45:03 10° SE 04:47:28 14° ESE 04:49:49 10° E visible
16 Feb 9.8 19:02:00 10° W 19:04:25 12° WSW 19:06:52 10° SW visible
18 Feb 5.4 05:18:08 10° SSW 05:22:41 80° WNW 05:26:59 10° NNE visible
19 Feb 6.3 04:44:21 10° S 04:48:48 54° ESE 04:53:02 10° NNE visible
